This is the latest recevied weather packets stored in our database for station/object KI4MRC-13. If no packets are shown the sender has not sent any weather packets the latest 10 day(s).
| Time | Temp. | Humidity | Pressure | Rain* | Wind** | Luminosity | Snow |
|---|---|---|---|---|---|---|---|
| 1788470409 | 32.22° C | 79% | 1012.9 hPa | 0 mm | - | 94 W/m² | - |
| 1788470104 | 32.22° C | 77% | 1012.8 hPa | 0 mm | - | 89 W/m² | - |
| 1788469801 | 32.78° C | 76% | 1013 hPa | 0 mm | - | 77 W/m² | - |
| 1788469500 | 33.33° C | 76% | 1013 hPa | 0 mm | - | 82 W/m² | - |
| 1788469196 | 33.33° C | 75% | 1013 hPa | 0 mm | - | 106 W/m² | - |
| 1788468890 | 33.89° C | 73% | 1013.1 hPa | 0 mm | - | 104 W/m² | - |
| 1788468584 | 33.89° C | 72% | 1013.2 hPa | 0 mm | - | 128 W/m² | - |
| 1788468281 | 34.44° C | 68% | 1013.4 hPa | 0 mm | - | 179 W/m² | - |
| 1788467976 | 34.44° C | 67% | 1013.3 hPa | 0 mm | - | 337 W/m² | - |
| 1788467672 | 34.44° C | 67% | 1012.8 hPa | 0 mm | - | 137 W/m² | - |
| 1788467371 | 34.44° C | 69% | 1012.7 hPa | 0 mm | - | 118 W/m² | - |
| 1788467074 | 35° C | 66% | 1012.8 hPa | 0 mm | - | 106 W/m² | - |
| 1788466767 | 34.44° C | 67% | 1012.9 hPa | 0 mm | - | 242 W/m² | - |
| 1788466463 | 34.44° C | 70% | 1012.7 hPa | 0 mm | - | 121 W/m² | - |
| 1788466161 | 35° C | 66% | 1012.8 hPa | 0 mm | - | 110 W/m² | - |
| 1788465856 | 35° C | 67% | 1013.2 hPa | 0 mm | - | 214 W/m² | - |
| 1788465551 | 35° C | 67% | 1013.2 hPa | 0 mm | - | 210 W/m² | - |
| 1788465249 | 35° C | 69% | 1012.9 hPa | 0 mm | - | 120 W/m² | - |
| 1788464643 | 35° C | 70% | 1012.9 hPa | 0 mm | - | 150 W/m² | - |
| 1788464339 | 35° C | 68% | 1013.1 hPa | 0 mm | - | 149 W/m² | - |
| 1788464035 | 35° C | 69% | 1013.1 hPa | 0 mm | - | 237 W/m² | - |
| 1788463730 | 34.44° C | 77% | 1013.2 hPa | 0 mm | - | 492 W/m² | - |
| 1788463426 | 33.89° C | 72% | 1013.5 hPa | 0 mm | - | 328 W/m² | - |
| 1788463122 | 33.33° C | 74% | 1013.3 hPa | 0 mm | - | 429 W/m² | - |
| 1788462818 | 33.89° C | 74% | 1013.1 hPa | 0 mm | - | 169 W/m² | - |
* Rain latest hour (hover to see other rain measurements)
** Current wind speed in m/s (hover to see current wind gust speed)